Madison, WI

2:26 AM CST on November 15, 2019 (GMT -0600)
Dane County Regional-Truax

Weather History for KMSN - October, 2019

Change the Weather History Date:

Monday, October 14, 2019

  Actual Average Record
Temperature  
Mean Temperature 43 °F 50 °F  
Max Temperature 52 °F 60 °F 82 °F (1947)
Min Temperature 33 °F 39 °F 22 °F (1979)
Degree Days  
Heating Degree Days 22 16  
Month to date heating degree days 174 188  
Since 1 July heating degree days 231 396  
Cooling Degree Days 0 0  
Month to date cooling degree days 4 0  
Year to date cooling degree days 656 564  
Moisture  
Dew Point 31 °F    
Average Humidity 67    
Maximum Humidity 89    
Minimum Humidity 44    
Precipitation  
Precipitation 0.00 in 0.08 in 1.74 in (2012)
Month to date precipitation 4.42 1.08  
Year to date precipitation 40.81 29.03  
Snow  
Snow 0.00 in 0.00 in T in (2001)
Month to date snowfall 0.0 0.1  
Since 1 July snowfall 0.0 0.1  
Since 1 September snowfall 0.0 0.1  
Snow Depth 0.00 in    
Sea Level Pressure  
Sea Level Pressure 30.03 in    
Wind  
Wind Speed 6 mph (West)    
Max Wind Speed 10 mph    
Max Gust Speed 17 mph    
Visibility 10 miles    
Events      
T = Trace of Precipitation, MM = Missing Value Source: NWS Daily Summary

Daily Weather History Graph

Daily Weather History Graph

Search for Another Location

Airport or City:

Astronomy

Oct. 14, 2019 Rise Set
Actual Time 7:09 AM CDT 6:16 PM CDT
Civil Twilight 6:40 AM CDT 6:45 PM CDT
Nautical Twilight 6:07 AM CDT 7:17 PM CDT
Astronomical Twilight 5:35 AM CDT 7:50 PM CDT
Moon 7:06 PM CDT (10/14) 7:40 AM CDT (10/14)
Length of Visible Light 12h 04m
Length of Day
11h 06m
Full, 99% of the Moon is Illuminated
Oct 14
Full
Oct 21
Last Quarter
Oct 27
New
Nov 4
First Quarter
Nov 12
Full

Hourly Weather History & Observations

Time (CDT) Temp. Windchill Dew Point Humidity Pressure Visibility Wind Dir Wind Speed Gust Speed Precip Events Conditions
12:53 AM 36.0 °F - 30.0 °F 79% 29.96 in 10.0 mi Calm Calm - N/A   Clear
1:53 AM 36.0 °F 31.1 °F 30.0 °F 79% 29.97 in 10.0 mi WNW 5.8 mph - N/A   Clear
2:53 AM 35.1 °F 30.1 °F 30.0 °F 82% 29.98 in 10.0 mi West 5.8 mph - N/A   Clear
3:53 AM 34.0 °F 29.8 °F 30.0 °F 85% 29.98 in 10.0 mi Variable 4.6 mph - N/A   Clear
4:53 AM 34.0 °F 29.8 °F 30.0 °F 85% 29.99 in 10.0 mi WNW 4.6 mph - N/A   Clear
5:53 AM 33.1 °F 27.7 °F 30.0 °F 89% 30.01 in 10.0 mi WNW 5.8 mph - N/A   Clear
6:53 AM 33.1 °F 28.7 °F 30.0 °F 89% 30.04 in 10.0 mi WNW 4.6 mph - N/A   Partly Cloudy
7:53 AM 34.0 °F 28.0 °F 30.9 °F 89% 30.05 in 10.0 mi West 6.9 mph - N/A   Partly Cloudy
8:53 AM 37.0 °F 30.4 °F 32.0 °F 82% 30.07 in 10.0 mi WNW 9.2 mph - N/A   Mostly Cloudy
9:53 AM 41.0 °F 37.1 °F 32.0 °F 70% 30.08 in 10.0 mi Variable 5.8 mph - N/A   Mostly Cloudy
10:53 AM 44.1 °F 38.6 °F 30.9 °F 60% 30.08 in 10.0 mi WNW 10.4 mph - N/A   Scattered Clouds
11:53 AM 46.0 °F 41.0 °F 28.0 °F 50% 30.08 in 10.0 mi WNW 10.4 mph - N/A   Scattered Clouds
12:53 PM 46.9 °F - 28.0 °F 48% 30.08 in 10.0 mi WSW 9.2 mph - N/A   Scattered Clouds
1:53 PM 48.9 °F - 28.9 °F 46% 30.06 in 10.0 mi Variable 3.5 mph - N/A   Scattered Clouds
2:53 PM 50.0 °F - 30.0 °F 46% 30.04 in 10.0 mi Variable 5.8 mph - N/A   Scattered Clouds
3:53 PM 51.1 °F - 30.9 °F 46% 30.04 in 10.0 mi West 5.8 mph - N/A   Mostly Cloudy
4:53 PM 51.1 °F - 30.0 °F 44% 30.02 in 10.0 mi Variable 6.9 mph - N/A   Mostly Cloudy
5:53 PM 50.0 °F - 30.0 °F 46% 30.03 in 10.0 mi SSW 9.2 mph - N/A   Partly Cloudy
6:53 PM 46.9 °F - 30.9 °F 54% 30.03 in 10.0 mi SSW 3.5 mph - N/A   Partly Cloudy
7:53 PM 41.0 °F - 33.1 °F 73% 30.03 in 10.0 mi Calm Calm - N/A   Partly Cloudy
8:53 PM 39.9 °F - 33.1 °F 77% 30.04 in 10.0 mi Calm Calm - N/A   Partly Cloudy
9:53 PM 37.9 °F - 35.1 °F 89% 30.03 in 10.0 mi Calm Calm - N/A   Mostly Cloudy
10:53 PM 39.0 °F - 33.1 °F 79% 30.03 in 10.0 mi Calm Calm - N/A   Mostly Cloudy
11:53 PM 37.9 °F - 33.1 °F 83% 30.02 in 10.0 mi Calm Calm - N/A   Clear